Weather History for Jackson Hawkins Field, MS

Change the Weather History Date:

Saturday, February 23, 2013

  Actual Average (KJAN) Record (KJAN)
Temperature  
Mean Temperature 50 °F 52 °F  
Max Temperature 59 °F 63 °F 84 °F (2012)
Min Temperature 41 °F 40 °F 17 °F (1964)
Degree Days  
Heating Degree Days 15 14  
Month to date heating degree days 373  
Since 1 July heating degree days 1925  
Cooling Degree Days 0 0  
Month to date cooling degree days 0  
Year to date cooling degree days 4  
Moisture  
Dew Point 42 °F    
Average Humidity 78    
Maximum Humidity 94    
Minimum Humidity 58    
Precipitation  
Precipitation 0.00 in 0.17 in 3.26 in (1979)
Month to date precipitation 3.95  
Year to date precipitation 8.92  
Sea Level Pressure  
Sea Level Pressure 29.96 in    
Wind  
Wind Speed 5 mph (NNW)    
Max Wind Speed 7 mph    
Max Gust Speed 16 mph    
Visibility 10 miles    
Events      
T = Trace of Precipitation, MM = Missing Value Source: NWS Daily Summary

Daily Weather History Graph

Daily Weather History Graph

Search for Another Location

Airport:

Trip Planner

Search our weather history database for the weather conditions in past years. The results will help you decide how hot, cold, wet, or windy it might be!

Date:

Astronomy

Feb. 23, 2013 Rise Set
Actual Time 6:34 AM CST 5:53 PM CST
Civil Twilight 6:10 AM CST 6:18 PM CST
Nautical Twilight 5:41 AM CST 6:47 PM CST
Astronomical Twilight 5:13 AM CST 7:15 PM CST
Moon 4:07 PM CST 4:53 AM CST
Length of Visible Light 12h 08m
Length of Day
11h 18m
Waxing Gibbous, 95% of the Moon is Illuminated
Feb 23
Waxing Gibbous
Feb 25
Full
Mar 4
Last Quarter
Mar 11
New
Mar 19
First Quarter

Hourly Weather History & Observations

Time (CST) Temp. Windchill Dew Point Humidity Pressure Visibility Wind Dir Wind Speed Gust Speed Precip Events Conditions
12:00 AM 50.0 °F - 48.2 °F 94% 30.00 in 10.0 mi Variable 5.8 mph - N/A   Overcast
12:53 AM 48.9 °F - 46.9 °F 93% 29.98 in 10.0 mi NNW 5.8 mph - N/A   Overcast
1:53 AM 48.0 °F - 45.0 °F 89% 29.98 in 10.0 mi North 5.8 mph - N/A   Mostly Cloudy
2:53 AM 46.0 °F 44.8 °F 43.0 °F 89% 29.98 in 10.0 mi NNW 3.5 mph - N/A   Mostly Cloudy
3:53 AM 45.0 °F 43.5 °F 42.1 °F 90% 29.96 in 10.0 mi North 3.5 mph - N/A   Clear
4:53 AM 44.1 °F 41.5 °F 41.0 °F 89% 29.97 in 10.0 mi North 4.6 mph - N/A   Clear
5:53 AM 43.0 °F 41.3 °F 39.9 °F 89% 29.96 in 10.0 mi NNE 3.5 mph - N/A   Clear
6:53 AM 43.0 °F 40.3 °F 39.9 °F 89% 29.96 in 10.0 mi North 4.6 mph - N/A   Clear
7:41 AM 44.6 °F 43.1 °F 41.0 °F 87% 29.98 in 10.0 mi North 3.5 mph - N/A   Partly Cloudy
7:53 AM 45.0 °F 42.6 °F 41.0 °F 86% 29.98 in 10.0 mi North 4.6 mph - N/A   Partly Cloudy
8:53 AM 48.0 °F - 42.1 °F 80% 30.00 in 10.0 mi North 6.9 mph - N/A   Partly Cloudy
9:53 AM 51.1 °F - 42.1 °F 71% 29.99 in 10.0 mi Calm Calm - N/A   Clear
10:53 AM 52.0 °F - 43.0 °F 71% 29.99 in 10.0 mi NNW 4.6 mph - N/A   Clear
11:53 AM 53.1 °F - 44.1 °F 71% 29.96 in 10.0 mi NNW 6.9 mph - N/A   Clear
12:53 PM 55.0 °F - 45.0 °F 69% 29.94 in 10.0 mi NW 5.8 mph - N/A   Clear
1:53 PM 57.0 °F - 44.1 °F 62% 29.92 in 10.0 mi North 4.6 mph - N/A   Clear
2:53 PM 57.9 °F - 44.1 °F 60% 29.91 in 10.0 mi North 4.6 mph - N/A   Clear
3:53 PM 59.0 °F - 44.1 °F 58% 29.90 in 10.0 mi NW 4.6 mph - N/A   Partly Cloudy
4:53 PM 55.9 °F - 42.1 °F 60% 29.91 in 10.0 mi NNW 6.9 mph 16.1 mph N/A   Clear
5:53 PM 52.0 °F - 41.0 °F 66% 29.94 in 10.0 mi NNW 6.9 mph - N/A   Clear
6:53 PM 50.0 °F - 37.0 °F 61% 29.96 in 10.0 mi NNW 3.5 mph - N/A   Clear
7:53 PM 48.0 °F - 37.0 °F 66% 29.96 in 10.0 mi NNW 3.5 mph - N/A   Clear
9:53 PM 44.1 °F - 37.0 °F 76% 29.98 in 10.0 mi Calm Calm - N/A   Clear
10:53 PM 41.0 °F - 37.0 °F 86% 29.98 in 10.0 mi Calm Calm - N/A   Clear
11:53 PM 41.0 °F - 37.0 °F 86% 29.98 in 10.0 mi Calm Calm - N/A   Clear